Back to catalog

ONEWEB-0031

AliveCommunicationsPO
NORAD 45431·PAYLOAD·🇬🇧 United Kingdom

Launched Mar 21, 2020 from Baikonur Cosmodrome

Loading…

Next Passes (next 24 hours)

TLE

FreshSource: CelesTrak SupGP

Epoch: Sep 14, 2026, 16:56 UTC

1 45431C 20020H   26257.70572176  .00003688  00000+0  10418-1 0  2574
2 45431  87.8959   3.2728 0001677  98.3384   6.5884 13.11410208    16

Track ONEWEB-0031 in real time with AllMySat

Download on the App Store